Regional Weather Roundup
Issued by NWS

Home | Current Version | Previous Version | Graphics & Text | Print | Product List | Glossary On
Versions: 1 2 3 4 5 6 7 8 9 10 11 12 13 14 15 16 17 18 19 20 21 22 23 24 25 26 27 28
000
ASUS45 KSLC 292310
RWRUT

UTAH REGIONAL WEATHER ROUNDUP
NATIONAL WEATHER SERVICE SALT LAKE CITY UT
500 PM MDT SAT APR 29 2017

UTZ001>011-023>025-300000-

NORTHERN UTAH

CITY           SKY/WX    TMP DP  RH WIND       PRES   REMARKS
BRIGHAM CITY   MOSUNNY   55  22  27 CALM      30.19F
HILL AFB       MOSUNNY   52  23  32 N7        30.18F
LOGAN          PTSUNNY   54  25  32 CALM      30.19F
OGDEN          MOSUNNY   53  23  31 E7        30.18F
SALT LAKE CITY PTSUNNY   56  26  31 NW12      30.18F
TOOELE VALLEY  SUNNY     52  30  43 N7        30.21F
WENDOVER       PTSUNNY   58  26  29 SE13      30.19F
HEBER CITY     SUNNY     48  21  34 N18G29    30.15S
WEST JORDAN    SUNNY     55  38  53 NW21      30.18F

$$

UTZ011>015-024>027-300000-

CENTRAL/NORTHEAST UTAH

CITY           SKY/WX    TMP DP  RH WIND       PRES   REMARKS
PROVO AIRPORT  MOSUNNY   55  27  33 NW23      30.15S
MOAB/CANYONLAN CLOUDY    58  19  22 N7G17     30.02F
DELTA          SUNNY     55  21  26 N20       30.14F
PRICE          PTSUNNY   51  19  28 NW15G26   30.06F
ROOSEVELT      SUNNY     54  18  24 SE16      30.12F
VERNAL         SUNNY     50  18  28 NE17G26   30.13F

$$

UTZ013>016-019>022-027-300000-

SOUTHERN UTAH

CITY           SKY/WX    TMP DP  RH WIND       PRES   REMARKS
BRYCE CANYON   PTSUNNY   47  15  27 N20G31    30.12R
CEDAR CITY     MOSUNNY   51  19  28 N17G26    30.13F
MILFORD        PTSUNNY   55  23  28 N20G32    30.14F
ST GEORGE      CLEAR     70  18  13 N13G25    30.04F
HANKSVILLE     CLOUDY    61  14  16 NE13G20   30.05R
BLANDING       PTSUNNY   49  18  28 N15       30.07R

$$

REGIONAL REPORTS     COLORADO/ARIZONA

CITY           SKY/WX    TMP DP  RH WIND       PRES   REMARKS
CRAIG, CO      CLOUDY    46  17  31 N3        30.06F
GRAND JUNCTION CLOUDY    54  20  26 NW15G23   30.02S
RIFLE, CO      CLOUDY    48  21  34 E8        30.02F
MONTROSE, CO   CLOUDY    46  30  53 E5        30.01F
CORTEZ, CO     CLOUDY    52  24  33 N18G30    29.96R
COLORADO CITY    N/A     63  18  17 NW16G24   30.09S
PAGE, AZ       CLOUDY    63  16  16 NE9       30.00S
GRAND CANYON   PTSUNNY   53  15  22 NW15G32   30.08R
KINGMAN, AZ    SUNNY     71  19  14 N29G36    30.04F
FLAGSTAFF, AZ  MOSUNNY   53   9  17 NE17G26   30.05R

$$

REGIONAL REPORTS    NEVADA/IDAHO/WYOMING

CITY           SKY/WX    TMP DP  RH WIND       PRES   REMARKS
LAS VEGAS, NV  MOSUNNY   78   7   6 N9G24     30.01F
ELY, NY        SUNNY     54  15  21 N14G24    30.19F
ELKO, NV       SUNNY     56  19  23 CALM      30.21F
POCATELLO, ID  MOSUNNY   56  27  32 VRB3      30.18F
BURLEY, ID     SUNNY     57  23  26 W10G18    30.17F
FORT BRIDGER,    N/A     41  25  52 NW5       30.24S
EVANSTON, WY   CLOUDY    38  21  50 NE7       30.21F WCI  33
ROCK SPRINGS,  MOSUNNY   40  18  41 N8        30.18F WCI  34
KEMMERER, WY     N/A     36  21  55 SW5       30.21S WCI  32

$$




USA.gov is the U.S. government's official web portal to all federal, state and local government web resources and services.